| time (UTC) | temp C | wind direction | speed KPH | gust KPH | rain 1hr cm | rain 24hr cm | rain mn cm | humidity % | barometer mb |
| 20260510113104 | 13 | 15 | 1.6 | 6.4 | 0.00 | 0.00 | 0.00 | 81 | 1014.2 |
| 20260510111556 | 12 | 35 | 1.6 | 4.8 | 0.00 | 0.00 | 0.00 | 83 | 1014.0 |
| 20260510110052 | 11 | 35 | 1.6 | 6.4 | 0.00 | 0.00 | 0.00 | 85 | 1014.0 |
| 20260510104546 | 11 | 36 | 0.0 | 3.2 | 0.00 | 0.00 | 0.00 | 85 | 1013.7 |
| 20260510103049 | 11 | 36 | 0.0 | 3.2 | 0.00 | 0.00 | 0.00 | 85 | 1013.7 |
| 20260510101542 | 11 | 36 | 0.0 | 1.6 | 0.00 | 0.00 | 0.00 | 85 | 1013.5 |
| 20260510100101 | 11 | 36 | 0.0 | 3.2 | 0.00 | 0.00 | 0.00 | 85 | 1013.4 |
| 20260510094538 | 12 | 36 | 0.0 | 3.2 | 0.00 | 0.00 | 0.00 | 85 | 1013.2 |
| 20260510093045 | 12 | 36 | 0.0 | 1.6 | 0.00 | 0.00 | 0.00 | 84 | 1013.0 |
| 20260510091539 | 12 | 38 | 1.6 | 6.4 | 0.00 | 0.00 | 0.00 | 85 | 1013.0 |
| 20260510090038 | 12 | 94 | 1.6 | 4.8 | 0.00 | 0.00 | 0.00 | 88 | 1013.0 |
| 20260510084535 | 12 | 104 | 0.0 | 3.2 | 0.00 | 0.00 | 0.00 | 89 | 1012.9 |
| 20260510083033 | 12 | 104 | 1.6 | 4.8 | 0.00 | 0.00 | 0.00 | 88 | 1012.9 |
| 20260510081529 | 12 | 155 | 1.6 | 3.2 | 0.00 | 0.00 | 0.00 | 87 | 1012.6 |
| 20260510080027 | 13 | 155 | 0.0 | 3.2 | 0.00 | 0.00 | 0.00 | 87 | 1012.4 |
| 20260510074526 | 13 | 155 | 0.0 | 3.2 | 0.00 | 0.00 | 0.00 | 88 | 1012.2 |
| 20260510073024 | 13 | 155 | 0.0 | 3.2 | 0.00 | 0.00 | 0.00 | 87 | 1012.2 |
| 20260510071534 | 13 | 155 | 0.0 | 3.2 | 0.00 | 0.00 | 0.00 | 87 | 1012.1 |
| 20260510070020 | 13 | 157 | 0.0 | 1.6 | 0.00 | 0.00 | 0.00 | 87 | 1012.0 |
| 20260510064517 | 14 | 157 | 0.0 | 3.2 | 0.00 | 0.00 | 0.00 | 85 | 1012.2 |
| 20260510063020 | 15 | 158 | 0.0 | 3.2 | 0.00 | 0.00 | 0.00 | 85 | 1012.2 |
| 20260510061526 | 15 | 158 | 0.0 | 3.2 | 0.00 | 0.00 | 0.00 | 84 | 1012.4 |
| 20260510060012 | 15 | 158 | 0.0 | 4.8 | 0.00 | 0.00 | 0.00 | 83 | 1012.4 |
| 20260510054508 | 15 | 158 | 4.8 | 8.0 | 0.00 | 0.00 | 0.00 | 80 | 1012.4 |
| 20260510053007 | 16 | 184 | 0.0 | 4.8 | 0.00 | 0.00 | 0.00 | 79 | 1012.5 |
| 20260510051507 | 16 | 184 | 1.6 | 6.4 | 0.00 | 0.00 | 0.00 | 79 | 1012.3 |
| 20260510050005 | 16 | 215 | 3.2 | 6.4 | 0.00 | 0.00 | 0.00 | 78 | 1012.4 |
| 20260510044504 | 15 | 202 | 0.0 | 3.2 | 0.00 | 0.00 | 0.00 | 78 | 1012.4 |
| 20260510043003 | 16 | 195 | 0.0 | 3.2 | 0.00 | 0.00 | 0.00 | 79 | 1012.3 |
| 20260510041602 | 16 | 195 | 1.6 | 4.8 | 0.00 | 0.00 | 0.00 | 79 | 1012.3 |
| 20260510040103 | 16 | 196 | 1.6 | 4.8 | 0.00 | 0.00 | 0.00 | 78 | 1012.3 |
| 20260510034609 | 16 | 196 | 3.2 | 4.8 | 0.00 | 0.00 | 0.00 | 77 | 1012.1 |
| 20260510033114 | 17 | 201 | 0.0 | 4.8 | 0.00 | 0.00 | 0.00 | 76 | 1012.0 |
| 20260510031559 | 17 | 200 | 0.0 | 3.2 | 0.00 | 0.00 | 0.00 | 75 | 1011.8 |
| 20260510030056 | 18 | 199 | 0.0 | 4.8 | 0.00 | 0.00 | 0.00 | 74 | 1011.9 |
| 20260510024559 | 18 | 197 | 0.0 | 4.8 | 0.00 | 0.00 | 0.00 | 74 | 1011.9 |
| 20260510023056 | 18 | 253 | 0.0 | 9.7 | 0.00 | 0.00 | 0.00 | 73 | 1011.7 |
| 20260510021555 | 18 | 222 | 4.8 | 8.0 | 0.00 | 0.00 | 0.00 | 72 | 1011.6 |
| 20260510020055 | 19 | 192 | 4.8 | 9.7 | 0.00 | 0.00 | 0.00 | 71 | 1011.2 |
| 20260510014554 | 19 | 221 | 6.4 | 11.3 | 0.00 | 0.00 | 0.00 | 71 | 1010.9 |
| 20260510013055 | 19 | 202 | 3.2 | 9.7 | 0.00 | 0.00 | 0.00 | 69 | 1010.6 |
| 20260510011556 | 20 | 192 | 0.0 | 3.2 | 0.00 | 0.00 | 0.00 | 65 | 1010.2 |
| 20260510010053 | 20 | 190 | 0.0 | 3.2 | 0.00 | 0.00 | 0.00 | 64 | 1010.0 |
| 20260510004552 | 20 | 190 | 0.0 | 4.8 | 0.00 | 0.00 | 0.00 | 62 | 1009.9 |
| 20260510003151 | 21 | 181 | 1.6 | 6.4 | 0.00 | 0.00 | 0.00 | 60 | 1009.7 |
| 20260510001550 | 21 | 181 | 1.6 | 6.4 | 0.00 | 0.00 | 0.00 | 58 | 1009.6 |
| 20260510000053 | 22 | 199 | 0.0 | 8.0 | 0.00 | 0.00 | 0.00 | 56 | 1009.3 |
| 20260509234601 | 22 | 214 | 1.6 | 6.4 | 0.00 | 0.00 | 0.00 | 55 | 1009.3 |
| 20260509233049 | 22 | 225 | 3.2 | 8.0 | 0.00 | 0.00 | 0.00 | 54 | 1009.0 |
| 20260509231553 | 22 | 214 | 8.0 | 12.9 | 0.00 | 0.00 | 0.00 | 53 | 1008.9 |
| 20260509230056 | 23 | 237 | 4.8 | 8.0 | 0.00 | 0.00 | 0.00 | 53 | 1008.8 |
| 20260509224547 | 23 | 227 | 4.8 | 19.3 | 0.00 | 0.00 | 0.00 | 51 | 1008.9 |
| 20260509223049 | 23 | 213 | 4.8 | 17.7 | 0.00 | 0.00 | 0.00 | 52 | 1008.9 |
| 20260509221547 | 24 | 227 | 3.2 | 11.3 | 0.00 | 0.00 | 0.00 | 51 | 1009.0 |
| 20260509220046 | 23 | 222 | 4.8 | 9.7 | 0.00 | 0.00 | 0.00 | 50 | 1008.8 |
| 20260509214546 | 23 | 240 | 4.8 | 17.7 | 0.00 | 0.00 | 0.00 | 51 | 1008.8 |
| 20260509213046 | 24 | 214 | 14.5 | 27.4 | 0.00 | 0.00 | 0.00 | 49 | 1008.7 |
| 20260509211544 | 23 | 295 | 12.9 | 20.9 | 0.00 | 0.00 | 0.00 | 49 | 1008.6 |
| 20260509210049 | 23 | 200 | 3.2 | 17.7 | 0.00 | 0.00 | 0.00 | 50 | 1008.5 |
| 20260509204543 | 23 | 197 | 8.0 | 24.1 | 0.00 | 0.00 | 0.00 | 50 | 1008.6 |
| 20260509203041 | 23 | 232 | 12.9 | 22.5 | 0.00 | 0.00 | 0.00 | 48 | 1008.7 |
| 20260509201541 | 23 | 255 | 3.2 | 19.3 | 0.00 | 0.00 | 0.00 | 52 | 1008.6 |
| 20260509200041 | 23 | 189 | 6.4 | 24.1 | 0.00 | 0.00 | 0.00 | 50 | 1008.6 |
| 20260509194537 | 23 | 246 | 4.8 | 22.5 | 0.00 | 0.00 | 0.00 | 54 | 1008.7 |
| 20260509193032 | 22 | 227 | 8.0 | 19.3 | 0.00 | 0.00 | 0.00 | 52 | 1009.1 |
| 20260509191532 | 22 | 228 | 8.0 | 25.7 | 0.00 | 0.00 | 0.00 | 55 | 1009.2 |
| 20260509190031 | 21 | 183 | 9.7 | 24.1 | 0.00 | 0.00 | 0.00 | 55 | 1009.4 |
| 20260509184528 | 21 | 178 | 4.8 | 20.9 | 0.00 | 0.00 | 0.00 | 53 | 1009.5 |
| 20260509183028 | 22 | 182 | 11.3 | 24.1 | 0.00 | 0.00 | 0.00 | 52 | 1009.8 |
| 20260509181539 | 22 | 223 | 14.5 | 25.7 | 0.00 | 0.00 | 0.00 | 54 | 1009.9 |
| 20260509180022 | 21 | 223 | 19.3 | 29.0 | 0.00 | 0.00 | 0.00 | 56 | 1010.3 |
| 20260509174622 | 21 | 229 | 20.9 | 35.4 | 0.00 | 0.03 | 0.00 | 59 | 1010.4 |
| 20260509173023 | 20 | 236 | 6.4 | 27.4 | 0.00 | 0.03 | 0.00 | 63 | 1010.7 |
| 20260509171514 | 20 | 202 | 16.1 | 30.6 | 0.00 | 0.03 | 0.00 | 63 | 1010.8 |
| 20260509170012 | 20 | 350 | 8.0 | 20.9 | 0.00 | 0.03 | 0.00 | 65 | 1010.9 |
| 20260509164512 | 20 | 209 | 9.7 | 27.4 | 0.00 | 0.03 | 0.00 | 64 | 1011.1 |
| 20260509163009 | 20 | 214 | 14.5 | 25.7 | 0.00 | 0.03 | 0.00 | 64 | 1011.1 |
| 20260509161507 | 20 | 197 | 4.8 | 24.1 | 0.00 | 0.03 | 0.00 | 66 | 1011.1 |
| 20260509160008 | 19 | 236 | 14.5 | 33.8 | 0.00 | 0.03 | 0.00 | 64 | 1011.3 |
| 20260509154504 | 19 | 232 | 6.4 | 16.1 | 0.00 | 0.03 | 0.00 | 66 | 1011.5 |
| 20260509153001 | 19 | 313 | 16.1 | 27.4 | 0.00 | 0.03 | 0.00 | 66 | 1011.2 |
| 20260509151559 | 18 | 111 | 6.4 | 16.1 | 0.00 | 0.03 | 0.00 | 67 | 1011.6 |
| 20260509150055 | 17 | 188 | 11.3 | 19.3 | 0.00 | 0.03 | 0.00 | 68 | 1012.0 |
| 20260509144551 | 17 | 244 | 9.7 | 30.6 | 0.00 | 0.03 | 0.00 | 69 | 1012.2 |
| 20260509143049 | 17 | 205 | 9.7 | 17.7 | 0.00 | 0.03 | 0.00 | 69 | 1012.2 |
| 20260509141544 | 16 | 175 | 4.8 | 12.9 | 0.00 | 0.03 | 0.00 | 71 | 1011.8 |
| 20260509140043 | 15 | 185 | 4.8 | 16.1 | 0.00 | 0.03 | 0.00 | 71 | 1012.2 |
| 20260509134534 | 14 | 170 | 6.4 | 16.1 | 0.00 | 0.03 | 0.00 | 72 | 1012.7 |
| 20260509133034 | 14 | 177 | 4.8 | 16.1 | 0.00 | 0.03 | 0.00 | 72 | 1012.7 |
| 20260509131530 | 13 | 160 | 3.2 | 9.7 | 0.00 | 0.03 | 0.00 | 73 | 1012.8 |
| 20260509130029 | 12 | 146 | 4.8 | 11.3 | 0.00 | 0.03 | 0.00 | 77 | 1013.0 |
| 20260509124525 | 12 | 175 | 1.6 | 11.3 | 0.00 | 0.03 | 0.00 | 78 | 1013.1 |
| 20260509123025 | 11 | 136 | 4.8 | 8.0 | 0.00 | 0.03 | 0.00 | 78 | 1013.0 |
| 20260509121525 | 10 | 142 | 3.2 | 11.3 | 0.00 | 0.03 | 0.00 | 77 | 1012.9 |
| 20260509120018 | 10 | 152 | 3.2 | 9.7 | 0.00 | 0.03 | 0.00 | 78 | 1013.0 |
| 20260509114512 | 10 | 151 | 4.8 | 11.3 | 0.00 | 0.03 | 0.00 | 78 | 1013.0 |